Flag for Germany Weather past 2 weeks in Düren, North Rhine-Westphalia, Germany

Now
64 °F

Passing clouds.


Feels Like: 64 °F
Forecast: 63 / 75 °F
Wind: 1 mph from Southwest

Location: Noervenich

Current Time: Jul 28, 2014 at 6:59:07 AM

Latest Report: Jul 28, 2014 at 6:20 AM


Visibility: N/A

Pressure: 29.89 "Hg

Humidity: 94%

Dew point: 63 °F

Location of DürenLocation

Historic Weather in Düren — Graph

°F

Düren temperature yesterday

Maximum temperature yesterday: 79 °F (at 5:20 PM)
Minimum temperature yesterday: 61 °F (at 3:20 AM)
Average temperature yesterday: 70 °F

Past Weeks' High & Low Weather Summary

 TemperatureHumidityPressure
High93 °F (Jul 18, 5:20 PM)100% (Jul 13, 9:20 PM)30.18 "Hg (Jul 13, 9:20 PM)
Low55 °F (Jul 14, 5:20 AM)28% (Jul 18, 5:20 PM)29.74 "Hg (Jul 13, 4:20 PM)
Average70 °F74%29.98 "Hg
* Reported Jul 13 5:20 AM — Jul 28 5:20 AM, Düren, Weather by CustomWeather, © 2014

Note: Actual official high and low records may vary slightly from our data, if they occured in-between our weather recording intervals... More about our weather records

Advertising

Düren weather history for previous 24 hours

 ConditionsComfort  
Time TempWeatherWind HumidityBarometerVisibility
5:20 AM
Jul 28
64 °FPassing clouds.1 mph94%29.89 "HgN/A
4:20 AM64 °FPassing clouds.No wind94%29.92 "HgN/A
3:20 AM66 °FPartly cloudy.2 mph88%29.95 "HgN/A
2:20 AM66 °FPartly cloudy.3 mph88%29.95 "HgN/A
1:20 AM66 °FPassing clouds.5 mph88%29.98 "HgN/A
12:20 AM66 °FPartly cloudy.2 mph83%29.98 "HgN/A
11:20 PM
Jul 27
68 °FPartly cloudy.No wind78%29.98 "HgN/A
10:20 PM70 °FBroken clouds.No wind73%29.98 "HgN/A
9:20 PM72 °FPartly sunny.2 mph69%29.98 "HgN/A
8:20 PM75 °FPartly sunny.2 mph61%29.98 "HgN/A
7:20 PM77 °FWarm.3 mph54%29.98 "Hg3 mi
6:20 PM79 °FWarm.3 mph51%29.98 "Hg3 mi
5:20 PM79 °FWarm.5 mph51%29.98 "Hg3 mi
4:20 PM77 °FWarm.5 mph54%29.98 "Hg3 mi
3:20 PM77 °FWarm.5 mph57%30.01 "Hg3 mi
2:20 PM75 °FMild.3 mph61%30.01 "Hg3 mi
1:20 PM75 °FMild.6 mph61%30.01 "Hg3 mi
12:20 PM72 °FMild.5 mph73%30.04 "Hg2 mi
11:20 AM70 °FFog.5 mph83%30.04 "Hg3 mi
10:20 AM70 °FBroken clouds.3 mph78%30.04 "Hg3 mi
9:20 AM70 °FFog.5 mph83%30.01 "Hg3 mi
8:20 AM68 °FFog.5 mph88%30.01 "Hg2 mi
7:20 AM64 °FFog.3 mph94%30.01 "Hg2 mi
6:20 AM64 °FFog.5 mph94%29.98 "Hg2 mi
6:00 AM64 °FFog.7 mph94%29.98 "Hg2 mi
Weather by CustomWeather, © 2014

See weather overviewHow to use our weather pages